Hourly Data Report for July 30, 2021

CLYDE RIVER A
NUNAVUT
Current Station Operator: NAVCAN

70°29'09.000" N
68°31'01.000" W
26.50 m
2400804
71090
YCY

Download Data

Hourly Data (July 2021)
Hourly Data Report for July 30, 2021
TIME
LST
Temp Definition
°C
Dew Point Definition
°C
Rel Hum Definition
%
Precip. Amount Definition
mm

Wind Dir Definition
10's deg

Wind Spd Definition
km/h
Visibility Definition
km
Stn Press Definition
kPa
Hmdx Definition


Wind Chill Definition


Weather Definition


00:00 1.4 1.3 99 0.0 10 18 6.4 101.16     Fog
01:00 1.4 1.3 99 0.0 10 17 16.1 101.16     LegendNANA
02:00 1.2 1.1 99 0.0 10 21 16.1 101.15     LegendNANA
03:00 1.6 1.3 98 0.0 11 18 16.1 101.15     LegendNANA
04:00 2.0 1.7 98 0.0 11 17 16.1 101.10     LegendNANA
05:00 3.6 2.4 92 0.0 13 15 16.1 101.12     LegendNANA
06:00 6.0 3.5 84 0.0 13 9 16.1 101.12     LegendNANA
07:00 6.2 3.7 84 0.0 14 9 16.1 101.10     LegendNANA
08:00 8.1 4.5 78 0.0 12 9 16.1 101.09     LegendNANA
09:00 7.3 4.1 80 0.0 12 11 16.1 101.07     LegendNANA
10:00 8.8 4.7 76 0.0 12 11 16.1 101.04     LegendNANA
11:00 8.5 4.6 77 0.0 12 15 16.1 101.04     LegendNANA
12:00 7.4 3.9 78 0.0 9 11 16.1 101.07     LegendNANA
13:00 10.4 6.2 75 0.0 4 9 16.1 101.10     LegendNANA
14:00 11.5 7.0 74 0.0 34 22 16.1 101.10     LegendNANA
15:00 10.8 6.5 75 0.0 34 28 16.1 101.09     LegendNANA
16:00 11.8 7.2 73 0.0 34 34 16.1 101.06     LegendNANA
17:00 9.9 6.0 77 0.0 35 32 16.1 101.06     LegendNANA
18:00 8.4 4.8 78 0.0 35 34 16.1 101.07     LegendNANA
19:00 7.1 4.3 82 0.0 35 28 16.1 101.10     LegendNANA
20:00 6.6 4.1 84 0.0 34 18 16.1 101.11     LegendNANA
21:00 5.9 3.6 85 0.0 34 8 16.1 101.12     LegendNANA
22:00 5.3 3.2 86 0.0 36 5 16.1 101.09     LegendNANA
23:00 4.8 3.0 88 0.0 34 5 16.1 101.08     LegendNANA

Notes on Data Quality.

Legend

  • E = Estimated
  • M = Missing
  • NA = Not Available*
  • [empty] = Indicates an unobserved value
Date modified: